owner,sensor,date,latitude,longitude,relative_humidity,qcFlag 
DISL,ioos:station:DISL:BSCA:1,2019-02-01T00:27:00Z,30.3288,-87.8293,64.48,1111122 
DISL,ioos:station:DISL:BSCA:1,2019-02-01T01:57:00Z,30.3288,-87.8293,58.96,1111122 
DISL,ioos:station:DISL:BSCA:1,2019-02-01T02:57:00Z,30.3288,-87.8293,65.05,1111122 
DISL,ioos:station:DISL:BSCA:1,2019-02-01T03:57:00Z,30.3288,-87.8293,62.28,1111122 
DISL,ioos:station:DISL:BSCA:1,2019-02-01T04:57:00Z,30.3288,-87.8293,59.81,1111122 
DISL,ioos:station:DISL:BSCA:1,2019-02-01T05:57:00Z,30.3288,-87.8293,59.47,1111122 
DISL,ioos:station:DISL:BSCA:1,2019-02-01T06:57:00Z,30.3288,-87.8293,60.75,1111122 
DISL,ioos:station:DISL:BSCA:1,2019-02-01T07:57:00Z,30.3288,-87.8293,62.31,1111122 
DISL,ioos:station:DISL:BSCA:1,2019-02-01T08:57:00Z,30.3288,-87.8293,58.73,1111122 
DISL,ioos:station:DISL:BSCA:1,2019-02-01T09:57:00Z,30.3288,-87.8293,60.08,1111122 
DISL,ioos:station:DISL:BSCA:1,2019-02-01T10:57:00Z,30.3288,-87.8293,59.37,1111122 
DISL,ioos:station:DISL:BSCA:1,2019-02-01T11:57:00Z,30.3288,-87.8293,64.41,1111122 
DISL,ioos:station:DISL:BSCA:1,2019-02-01T12:57:00Z,30.3288,-87.8293,66.14,1111122 
DISL,ioos:station:DISL:BSCA:1,2019-02-01T13:57:00Z,30.3288,-87.8293,67.49,1111122 
DISL,ioos:station:DISL:BSCA:1,2019-02-01T14:57:00Z,30.3288,-87.8293,69.18,1111122 
DISL,ioos:station:DISL:BSCA:1,2019-02-01T15:57:00Z,30.3288,-87.8293,70.33,1111122 
DISL,ioos:station:DISL:BSCA:1,2019-02-01T16:57:00Z,30.3288,-87.8293,70.84,1111122 
DISL,ioos:station:DISL:BSCA:1,2019-02-01T17:57:00Z,30.3288,-87.8293,70.48,1111122 
DISL,ioos:station:DISL:BSCA:1,2019-02-01T18:57:00Z,30.3288,-87.8293,71.39,1111122 
DISL,ioos:station:DISL:BSCA:1,2019-02-01T19:57:00Z,30.3288,-87.8293,74.74,1111122 
DISL,ioos:station:DISL:BSCA:1,2019-02-01T20:57:00Z,30.3288,-87.8293,73.59,1111122 
DISL,ioos:station:DISL:BSCA:1,2019-02-01T21:57:00Z,30.3288,-87.8293,72.24,1111122 
DISL,ioos:station:DISL:BSCA:1,2019-02-01T22:57:00Z,30.3288,-87.8293,71.22,1111122 
DISL,ioos:station:DISL:BSCA:1,2019-02-01T23:57:00Z,30.3288,-87.8293,74.44,1111122 
DISL,ioos:station:DISL:BSCA:1,2019-02-02T00:57:00Z,30.3288,-87.8293,78.45,1111122 
DISL,ioos:station:DISL:BSCA:1,2019-02-02T01:57:00Z,30.3288,-87.8293,79.67,1111122 
DISL,ioos:station:DISL:BSCA:1,2019-02-02T02:57:00Z,30.3288,-87.8293,80.9,1111122 
DISL,ioos:station:DISL:BSCA:1,2019-02-02T03:57:00Z,30.3288,-87.8293,82.0,1111122 
DISL,ioos:station:DISL:BSCA:1,2019-02-02T04:57:00Z,30.3288,-87.8293,86.2,1111122 
DISL,ioos:station:DISL:BSCA:1,2019-02-02T05:57:00Z,30.3288,-87.8293,87.7,1111122 
DISL,ioos:station:DISL:BSCA:1,2019-02-02T06:57:00Z,30.3288,-87.8293,90.2,1111122 
DISL,ioos:station:DISL:BSCA:1,2019-02-02T07:57:00Z,30.3288,-87.8293,92.6,1111122 
DISL,ioos:station:DISL:BSCA:1,2019-02-02T08:57:00Z,30.3288,-87.8293,95.3,1111122 
DISL,ioos:station:DISL:BSCA:1,2019-02-02T09:57:00Z,30.3288,-87.8293,99.3,1111122 
DISL,ioos:station:DISL:BSCA:1,2019-02-02T10:57:00Z,30.3288,-87.8293,99.3,1111122 
DISL,ioos:station:DISL:BSCA:1,2019-02-02T11:57:00Z,30.3288,-87.8293,99.3,1111122 
DISL,ioos:station:DISL:BSCA:1,2019-02-02T12:57:00Z,30.3288,-87.8293,99.3,1111122 
DISL,ioos:station:DISL:BSCA:1,2019-02-02T13:57:00Z,30.3288,-87.8293,99.3,1111122 
DISL,ioos:station:DISL:BSCA:1,2019-02-02T14:57:00Z,30.3288,-87.8293,99.3,1111122 
DISL,ioos:station:DISL:BSCA:1,2019-02-02T15:57:00Z,30.3288,-87.8293,93.4,1111122 
DISL,ioos:station:DISL:BSCA:1,2019-02-02T16:57:00Z,30.3288,-87.8293,91.8,1111122 
DISL,ioos:station:DISL:BSCA:1,2019-02-02T17:57:00Z,30.3288,-87.8293,95.6,1111122 
DISL,ioos:station:DISL:BSCA:1,2019-02-02T18:57:00Z,30.3288,-87.8293,99.3,1111122 
DISL,ioos:station:DISL:BSCA:1,2019-02-02T19:57:00Z,30.3288,-87.8293,99.2,1111122 
DISL,ioos:station:DISL:BSCA:1,2019-02-02T20:57:00Z,30.3288,-87.8293,97.7,1111122 
DISL,ioos:station:DISL:BSCA:1,2019-02-02T21:57:00Z,30.3288,-87.8293,93.6,1111122 
DISL,ioos:station:DISL:BSCA:1,2019-02-02T22:57:00Z,30.3288,-87.8293,88.4,1111122 
DISL,ioos:station:DISL:BSCA:1,2019-02-02T23:57:00Z,30.3288,-87.8293,91.1,1111122 
DISL,ioos:station:DISL:BSCA:1,2019-02-03T00:57:00Z,30.3288,-87.8293,91.8,1111122 
DISL,ioos:station:DISL:BSCA:1,2019-02-03T01:57:00Z,30.3288,-87.8293,94.4,1111122 
DISL,ioos:station:DISL:BSCA:1,2019-02-03T02:57:00Z,30.3288,-87.8293,95.8,1111122 
DISL,ioos:station:DISL:BSCA:1,2019-02-03T03:57:00Z,30.3288,-87.8293,96.6,1111122 
DISL,ioos:station:DISL:BSCA:1,2019-02-03T04:57:00Z,30.3288,-87.8293,98.8,1111122 
DISL,ioos:station:DISL:BSCA:1,2019-02-03T05:57:00Z,30.3288,-87.8293,97.4,1111122 
DISL,ioos:station:DISL:BSCA:1,2019-02-03T06:57:00Z,30.3288,-87.8293,96.3,1111122 
DISL,ioos:station:DISL:BSCA:1,2019-02-03T07:57:00Z,30.3288,-87.8293,95.5,1111122 
DISL,ioos:station:DISL:BSCA:1,2019-02-03T08:57:00Z,30.3288,-87.8293,95.7,1111122 
DISL,ioos:station:DISL:BSCA:1,2019-02-03T09:57:00Z,30.3288,-87.8293,96.5,1111122 
DISL,ioos:station:DISL:BSCA:1,2019-02-03T10:57:00Z,30.3288,-87.8293,99.3,1111122 
DISL,ioos:station:DISL:BSCA:1,2019-02-03T11:57:00Z,30.3288,-87.8293,99.3,1111122 
DISL,ioos:station:DISL:BSCA:1,2019-02-03T12:57:00Z,30.3288,-87.8293,99.4,1111122 
DISL,ioos:station:DISL:BSCA:1,2019-02-03T13:57:00Z,30.3288,-87.8293,99.3,1111122 
DISL,ioos:station:DISL:BSCA:1,2019-02-03T14:57:00Z,30.3288,-87.8293,97.4,1111122 
DISL,ioos:station:DISL:BSCA:1,2019-02-03T15:57:00Z,30.3288,-87.8293,91.2,1111122 
DISL,ioos:station:DISL:BSCA:1,2019-02-03T16:57:00Z,30.3288,-87.8293,91.8,1111122 
DISL,ioos:station:DISL:BSCA:1,2019-02-03T17:57:00Z,30.3288,-87.8293,96.0,1111122 
DISL,ioos:station:DISL:BSCA:1,2019-02-03T18:57:00Z,30.3288,-87.8293,96.1,1111122 
DISL,ioos:station:DISL:BSCA:1,2019-02-03T19:57:00Z,30.3288,-87.8293,95.0,1111122 
DISL,ioos:station:DISL:BSCA:1,2019-02-03T20:57:00Z,30.3288,-87.8293,92.3,1111122 
DISL,ioos:station:DISL:BSCA:1,2019-02-03T21:57:00Z,30.3288,-87.8293,93.5,1111122 
DISL,ioos:station:DISL:BSCA:1,2019-02-03T22:57:00Z,30.3288,-87.8293,99.3,1111122 
DISL,ioos:station:DISL:BSCA:1,2019-02-03T23:57:00Z,30.3288,-87.8293,99.3,1111122 
DISL,ioos:station:DISL:BSCA:1,2019-02-04T00:57:00Z,30.3288,-87.8293,99.3,1111122 
DISL,ioos:station:DISL:BSCA:1,2019-02-04T01:57:00Z,30.3288,-87.8293,99.3,1111122 
DISL,ioos:station:DISL:BSCA:1,2019-02-04T02:57:00Z,30.3288,-87.8293,99.3,1111122 
DISL,ioos:station:DISL:BSCA:1,2019-02-04T03:57:00Z,30.3288,-87.8293,99.4,1111122 
DISL,ioos:station:DISL:BSCA:1,2019-02-04T04:57:00Z,30.3288,-87.8293,99.3,1111122 
DISL,ioos:station:DISL:BSCA:1,2019-02-04T05:57:00Z,30.3288,-87.8293,99.4,1111122 
DISL,ioos:station:DISL:BSCA:1,2019-02-04T06:57:00Z,30.3288,-87.8293,99.4,1111122 
DISL,ioos:station:DISL:BSCA:1,2019-02-04T07:57:00Z,30.3288,-87.8293,99.3,1111122 
DISL,ioos:station:DISL:BSCA:1,2019-02-04T08:57:00Z,30.3288,-87.8293,99.3,1111122 
DISL,ioos:station:DISL:BSCA:1,2019-02-04T09:57:00Z,30.3288,-87.8293,99.4,1111122 
DISL,ioos:station:DISL:BSCA:1,2019-02-04T10:57:00Z,30.3288,-87.8293,99.3,1111122 
DISL,ioos:station:DISL:BSCA:1,2019-02-04T11:57:00Z,30.3288,-87.8293,99.3,1111122 
DISL,ioos:station:DISL:BSCA:1,2019-02-04T12:57:00Z,30.3288,-87.8293,99.3,1111122 
DISL,ioos:station:DISL:BSCA:1,2019-02-04T13:57:00Z,30.3288,-87.8293,99.3,1111122 
DISL,ioos:station:DISL:BSCA:1,2019-02-04T14:57:00Z,30.3288,-87.8293,99.3,1111122 
DISL,ioos:station:DISL:BSCA:1,2019-02-04T15:57:00Z,30.3288,-87.8293,85.7,1111122 
DISL,ioos:station:DISL:BSCA:1,2019-02-04T16:57:00Z,30.3288,-87.8293,84.3,1111122 
DISL,ioos:station:DISL:BSCA:1,2019-02-04T17:57:00Z,30.3288,-87.8293,85.8,1111122 
DISL,ioos:station:DISL:BSCA:1,2019-02-04T18:57:00Z,30.3288,-87.8293,85.2,1111122 
DISL,ioos:station:DISL:BSCA:1,2019-02-04T19:57:00Z,30.3288,-87.8293,99.3,1111122 
DISL,ioos:station:DISL:BSCA:1,2019-02-04T20:57:00Z,30.3288,-87.8293,85.1,1111122 
DISL,ioos:station:DISL:BSCA:1,2019-02-04T21:57:00Z,30.3288,-87.8293,85.6,1111122 
DISL,ioos:station:DISL:BSCA:1,2019-02-04T22:57:00Z,30.3288,-87.8293,99.3,1111122 
DISL,ioos:station:DISL:BSCA:1,2019-02-04T23:57:00Z,30.3288,-87.8293,99.3,1111122 
DISL,ioos:station:DISL:BSCA:1,2019-02-05T00:57:00Z,30.3288,-87.8293,99.3,1111122 
DISL,ioos:station:DISL:BSCA:1,2019-02-05T01:57:00Z,30.3288,-87.8293,99.3,1111122 
DISL,ioos:station:DISL:BSCA:1,2019-02-05T02:57:00Z,30.3288,-87.8293,99.3,1111122 
DISL,ioos:station:DISL:BSCA:1,2019-02-05T03:57:00Z,30.3288,-87.8293,99.3,1111122 
DISL,ioos:station:DISL:BSCA:1,2019-02-05T04:57:00Z,30.3288,-87.8293,99.4,1111122 
DISL,ioos:station:DISL:BSCA:1,2019-02-05T05:57:00Z,30.3288,-87.8293,99.3,1111122 
DISL,ioos:station:DISL:BSCA:1,2019-02-05T06:57:00Z,30.3288,-87.8293,99.3,1111122 
DISL,ioos:station:DISL:BSCA:1,2019-02-05T07:57:00Z,30.3288,-87.8293,99.3,1111122 
DISL,ioos:station:DISL:BSCA:1,2019-02-05T08:57:00Z,30.3288,-87.8293,99.4,1111122 
DISL,ioos:station:DISL:BSCA:1,2019-02-05T09:57:00Z,30.3288,-87.8293,99.3,1111122 
DISL,ioos:station:DISL:BSCA:1,2019-02-05T10:57:00Z,30.3288,-87.8293,99.3,1111122 
DISL,ioos:station:DISL:BSCA:1,2019-02-05T11:57:00Z,30.3288,-87.8293,99.4,1111122 
DISL,ioos:station:DISL:BSCA:1,2019-02-05T12:57:00Z,30.3288,-87.8293,99.4,1111122 
DISL,ioos:station:DISL:BSCA:1,2019-02-05T13:57:00Z,30.3288,-87.8293,99.4,1111122 
DISL,ioos:station:DISL:BSCA:1,2019-02-05T14:57:00Z,30.3288,-87.8293,99.4,1111122 
DISL,ioos:station:DISL:BSCA:1,2019-02-05T15:57:00Z,30.3288,-87.8293,84.5,1111122 
DISL,ioos:station:DISL:BSCA:1,2019-02-05T16:57:00Z,30.3288,-87.8293,84.4,1111122 
DISL,ioos:station:DISL:BSCA:1,2019-02-05T17:57:00Z,30.3288,-87.8293,99.4,1111122 
DISL,ioos:station:DISL:BSCA:1,2019-02-05T18:57:00Z,30.3288,-87.8293,84.4,1111122 
DISL,ioos:station:DISL:BSCA:1,2019-02-05T19:57:00Z,30.3288,-87.8293,84.4,1111122 
DISL,ioos:station:DISL:BSCA:1,2019-02-05T20:57:00Z,30.3288,-87.8293,84.3,1111122 
DISL,ioos:station:DISL:BSCA:1,2019-02-05T21:57:00Z,30.3288,-87.8293,84.3,1111122 
DISL,ioos:station:DISL:BSCA:1,2019-02-05T22:57:00Z,30.3288,-87.8293,84.3,1111122 
DISL,ioos:station:DISL:BSCA:1,2019-02-05T23:57:00Z,30.3288,-87.8293,84.4,1111122 
DISL,ioos:station:DISL:BSCA:1,2019-02-06T00:57:00Z,30.3288,-87.8293,84.3,1111122 
DISL,ioos:station:DISL:BSCA:1,2019-02-06T01:57:00Z,30.3288,-87.8293,84.3,1111122 
DISL,ioos:station:DISL:BSCA:1,2019-02-06T02:57:00Z,30.3288,-87.8293,84.2,1111122 
DISL,ioos:station:DISL:BSCA:1,2019-02-06T03:57:00Z,30.3288,-87.8293,84.2,1111122 
DISL,ioos:station:DISL:BSCA:1,2019-02-06T04:57:00Z,30.3288,-87.8293,99.3,1111122 
DISL,ioos:station:DISL:BSCA:1,2019-02-06T05:57:00Z,30.3288,-87.8293,84.0,1111122 
DISL,ioos:station:DISL:BSCA:1,2019-02-06T06:57:00Z,30.3288,-87.8293,99.4,1111122 
DISL,ioos:station:DISL:BSCA:1,2019-02-06T07:57:00Z,30.3288,-87.8293,99.3,1111122 
DISL,ioos:station:DISL:BSCA:1,2019-02-06T08:57:00Z,30.3288,-87.8293,99.4,1111122 
DISL,ioos:station:DISL:BSCA:1,2019-02-06T09:57:00Z,30.3288,-87.8293,99.3,1111122 
DISL,ioos:station:DISL:BSCA:1,2019-02-06T10:57:00Z,30.3288,-87.8293,99.3,1111122 
DISL,ioos:station:DISL:BSCA:1,2019-02-06T11:57:00Z,30.3288,-87.8293,84.1,1111122 
DISL,ioos:station:DISL:BSCA:1,2019-02-06T12:57:00Z,30.3288,-87.8293,99.4,1111122 
DISL,ioos:station:DISL:BSCA:1,2019-02-06T13:57:00Z,30.3288,-87.8293,99.3,1111122 
DISL,ioos:station:DISL:BSCA:1,2019-02-06T14:57:00Z,30.3288,-87.8293,84.1,1111122 
DISL,ioos:station:DISL:BSCA:1,2019-02-06T15:57:00Z,30.3288,-87.8293,99.4,1111122 
DISL,ioos:station:DISL:BSCA:1,2019-02-06T16:57:00Z,30.3288,-87.8293,84.1,1111122 
DISL,ioos:station:DISL:BSCA:1,2019-02-06T17:57:00Z,30.3288,-87.8293,84.1,1111122 
DISL,ioos:station:DISL:BSCA:1,2019-02-06T18:57:00Z,30.3288,-87.8293,84.2,1111122 
DISL,ioos:station:DISL:BSCA:1,2019-02-06T19:57:00Z,30.3288,-87.8293,84.1,1111122 
DISL,ioos:station:DISL:BSCA:1,2019-02-06T20:57:00Z,30.3288,-87.8293,84.1,1111122 
DISL,ioos:station:DISL:BSCA:1,2019-02-06T22:57:00Z,30.3288,-87.8293,84.0,1111122 
DISL,ioos:station:DISL:BSCA:1,2019-02-06T23:57:00Z,30.3288,-87.8293,84.3,1111122 
DISL,ioos:station:DISL:BSCA:1,2019-02-07T00:57:00Z,30.3288,-87.8293,84.6,1111122 
DISL,ioos:station:DISL:BSCA:1,2019-02-07T01:57:00Z,30.3288,-87.8293,99.3,1111122 
DISL,ioos:station:DISL:BSCA:1,2019-02-07T02:57:00Z,30.3288,-87.8293,99.4,1111122 
DISL,ioos:station:DISL:BSCA:1,2019-02-07T03:57:00Z,30.3288,-87.8293,84.4,1111122 
DISL,ioos:station:DISL:BSCA:1,2019-02-07T04:57:00Z,30.3288,-87.8293,99.4,1111122 
DISL,ioos:station:DISL:BSCA:1,2019-02-07T05:57:00Z,30.3288,-87.8293,84.4,1111122 
DISL,ioos:station:DISL:BSCA:1,2019-02-07T06:57:00Z,30.3288,-87.8293,84.4,1111122 
DISL,ioos:station:DISL:BSCA:1,2019-02-07T07:57:00Z,30.3288,-87.8293,99.5,1111122 
DISL,ioos:station:DISL:BSCA:1,2019-02-07T08:57:00Z,30.3288,-87.8293,99.4,1111122 
DISL,ioos:station:DISL:BSCA:1,2019-02-07T09:57:00Z,30.3288,-87.8293,99.3,1111122 
DISL,ioos:station:DISL:BSCA:1,2019-02-07T10:57:00Z,30.3288,-87.8293,99.4,1111122 
DISL,ioos:station:DISL:BSCA:1,2019-02-07T11:57:00Z,30.3288,-87.8293,99.4,1111122 
DISL,ioos:station:DISL:BSCA:1,2019-02-07T12:57:00Z,30.3288,-87.8293,99.4,1111122 
DISL,ioos:station:DISL:BSCA:1,2019-02-07T13:57:00Z,30.3288,-87.8293,84.2,1111122 
DISL,ioos:station:DISL:BSCA:1,2019-02-07T14:57:00Z,30.3288,-87.8293,84.2,1111122 
DISL,ioos:station:DISL:BSCA:1,2019-02-07T15:57:00Z,30.3288,-87.8293,84.2,1111122 
DISL,ioos:station:DISL:BSCA:1,2019-02-07T16:57:00Z,30.3288,-87.8293,84.9,1111122 
DISL,ioos:station:DISL:BSCA:1,2019-02-07T17:57:00Z,30.3288,-87.8293,85.7,1111122 
DISL,ioos:station:DISL:BSCA:1,2019-02-07T18:57:00Z,30.3288,-87.8293,84.0,1111122 
DISL,ioos:station:DISL:BSCA:1,2019-02-07T19:57:00Z,30.3288,-87.8293,82.1,1111122 
DISL,ioos:station:DISL:BSCA:1,2019-02-07T20:57:00Z,30.3288,-87.8293,81.3,1111122 
DISL,ioos:station:DISL:BSCA:1,2019-02-07T21:57:00Z,30.3288,-87.8293,81.7,1111122 
DISL,ioos:station:DISL:BSCA:1,2019-02-07T22:57:00Z,30.3288,-87.8293,95.0,1111122 
DISL,ioos:station:DISL:BSCA:1,2019-02-07T23:57:00Z,30.3288,-87.8293,98.9,1111122 
DISL,ioos:station:DISL:BSCA:1,2019-02-08T00:57:00Z,30.3288,-87.8293,99.5,1111122 
DISL,ioos:station:DISL:BSCA:1,2019-02-08T01:57:00Z,30.3288,-87.8293,84.5,1111122 
DISL,ioos:station:DISL:BSCA:1,2019-02-08T02:57:00Z,30.3288,-87.8293,99.3,1111122 
DISL,ioos:station:DISL:BSCA:1,2019-02-08T03:57:00Z,30.3288,-87.8293,99.4,1111122 
DISL,ioos:station:DISL:BSCA:1,2019-02-08T04:57:00Z,30.3288,-87.8293,99.3,1111122 
DISL,ioos:station:DISL:BSCA:1,2019-02-08T05:57:00Z,30.3288,-87.8293,99.5,1111122 
DISL,ioos:station:DISL:BSCA:1,2019-02-08T06:57:00Z,30.3288,-87.8293,99.4,1111122 
DISL,ioos:station:DISL:BSCA:1,2019-02-08T07:57:00Z,30.3288,-87.8293,99.5,1111122 
DISL,ioos:station:DISL:BSCA:1,2019-02-08T08:57:00Z,30.3288,-87.8293,82.2,1111122 
DISL,ioos:station:DISL:BSCA:1,2019-02-08T09:57:00Z,30.3288,-87.8293,84.9,1111122 
DISL,ioos:station:DISL:BSCA:1,2019-02-08T10:57:00Z,30.3288,-87.8293,78.97,1111122 
DISL,ioos:station:DISL:BSCA:1,2019-02-08T11:57:00Z,30.3288,-87.8293,78.73,1111122 
DISL,ioos:station:DISL:BSCA:1,2019-02-08T12:57:00Z,30.3288,-87.8293,72.37,1111122 
DISL,ioos:station:DISL:BSCA:1,2019-02-08T13:57:00Z,30.3288,-87.8293,64.93,1111122 
DISL,ioos:station:DISL:BSCA:1,2019-02-08T14:57:00Z,30.3288,-87.8293,60.97,1111122 
DISL,ioos:station:DISL:BSCA:1,2019-02-08T15:57:00Z,30.3288,-87.8293,53.36,1111122 
DISL,ioos:station:DISL:BSCA:1,2019-02-08T16:57:00Z,30.3288,-87.8293,52.92,1111122 
DISL,ioos:station:DISL:BSCA:1,2019-02-08T17:57:00Z,30.3288,-87.8293,45.78,1111122 
DISL,ioos:station:DISL:BSCA:1,2019-02-08T18:57:00Z,30.3288,-87.8293,42.94,1111122 
DISL,ioos:station:DISL:BSCA:1,2019-02-08T19:57:00Z,30.3288,-87.8293,40.43,1111122 
DISL,ioos:station:DISL:BSCA:1,2019-02-08T20:57:00Z,30.3288,-87.8293,43.38,1111122 
DISL,ioos:station:DISL:BSCA:1,2019-02-08T21:57:00Z,30.3288,-87.8293,36.27,1111122 
DISL,ioos:station:DISL:BSCA:1,2019-02-08T22:57:00Z,30.3288,-87.8293,38.2,1111122 
DISL,ioos:station:DISL:BSCA:1,2019-02-08T23:57:00Z,30.3288,-87.8293,34.04,1111122 
DISL,ioos:station:DISL:BSCA:1,2019-02-09T00:57:00Z,30.3288,-87.8293,38.5,1111122 
DISL,ioos:station:DISL:BSCA:1,2019-02-09T01:57:00Z,30.3288,-87.8293,40.91,1111122 
DISL,ioos:station:DISL:BSCA:1,2019-02-09T02:57:00Z,30.3288,-87.8293,43.31,1111122 
DISL,ioos:station:DISL:BSCA:1,2019-02-09T03:57:00Z,30.3288,-87.8293,44.14,1111122 
DISL,ioos:station:DISL:BSCA:1,2019-02-09T04:57:00Z,30.3288,-87.8293,47.18,1111122 
DISL,ioos:station:DISL:BSCA:1,2019-02-09T05:57:00Z,30.3288,-87.8293,47.22,1111122 
DISL,ioos:station:DISL:BSCA:1,2019-02-09T06:57:00Z,30.3288,-87.8293,50.67,1111122 
DISL,ioos:station:DISL:BSCA:1,2019-02-09T07:57:00Z,30.3288,-87.8293,54.16,1111122 
DISL,ioos:station:DISL:BSCA:1,2019-02-09T08:57:00Z,30.3288,-87.8293,53.55,1111122 
DISL,ioos:station:DISL:BSCA:1,2019-02-09T09:57:00Z,30.3288,-87.8293,52.2,1111122 
DISL,ioos:station:DISL:BSCA:1,2019-02-09T10:57:00Z,30.3288,-87.8293,46.1,1111122 
DISL,ioos:station:DISL:BSCA:1,2019-02-09T11:57:00Z,30.3288,-87.8293,48.58,1111122 
DISL,ioos:station:DISL:BSCA:1,2019-02-09T12:57:00Z,30.3288,-87.8293,45.36,1111122 
DISL,ioos:station:DISL:BSCA:1,2019-02-09T13:57:00Z,30.3288,-87.8293,41.91,1111122 
DISL,ioos:station:DISL:BSCA:1,2019-02-09T14:57:00Z,30.3288,-87.8293,42.55,1111122 
DISL,ioos:station:DISL:BSCA:1,2019-02-09T15:57:00Z,30.3288,-87.8293,43.9,1111122 
DISL,ioos:station:DISL:BSCA:1,2019-02-09T16:57:00Z,30.3288,-87.8293,38.4,1111122 
DISL,ioos:station:DISL:BSCA:1,2019-02-09T17:57:00Z,30.3288,-87.8293,39.72,1111122 
DISL,ioos:station:DISL:BSCA:1,2019-02-09T18:57:00Z,30.3288,-87.8293,36.54,1111122 
DISL,ioos:station:DISL:BSCA:1,2019-02-09T19:57:00Z,30.3288,-87.8293,38.71,1111122 
DISL,ioos:station:DISL:BSCA:1,2019-02-09T20:57:00Z,30.3288,-87.8293,39.93,1111122 
DISL,ioos:station:DISL:BSCA:1,2019-02-09T21:57:00Z,30.3288,-87.8293,34.82,1111122 
DISL,ioos:station:DISL:BSCA:1,2019-02-09T22:57:00Z,30.3288,-87.8293,40.39,1111122 
DISL,ioos:station:DISL:BSCA:1,2019-02-09T23:57:00Z,30.3288,-87.8293,46.19,1111122 
DISL,ioos:station:DISL:BSCA:1,2019-02-10T00:57:00Z,30.3288,-87.8293,49.81,1111122 
DISL,ioos:station:DISL:BSCA:1,2019-02-10T01:57:00Z,30.3288,-87.8293,51.53,1111122 
DISL,ioos:station:DISL:BSCA:1,2019-02-10T02:57:00Z,30.3288,-87.8293,56.17,1111122 
DISL,ioos:station:DISL:BSCA:1,2019-02-10T03:57:00Z,30.3288,-87.8293,54.15,1111122 
DISL,ioos:station:DISL:BSCA:1,2019-02-10T04:57:00Z,30.3288,-87.8293,58.69,1111122 
DISL,ioos:station:DISL:BSCA:1,2019-02-10T05:57:00Z,30.3288,-87.8293,48.97,1111122 
DISL,ioos:station:DISL:BSCA:1,2019-02-10T06:57:00Z,30.3288,-87.8293,51.77,1111122 
DISL,ioos:station:DISL:BSCA:1,2019-02-10T07:57:00Z,30.3288,-87.8293,57.93,1111122 
DISL,ioos:station:DISL:BSCA:1,2019-02-10T08:57:00Z,30.3288,-87.8293,62.29,1111122 
DISL,ioos:station:DISL:BSCA:1,2019-02-10T09:57:00Z,30.3288,-87.8293,63.21,1111122 
DISL,ioos:station:DISL:BSCA:1,2019-02-10T10:57:00Z,30.3288,-87.8293,66.36,1111122 
DISL,ioos:station:DISL:BSCA:1,2019-02-10T11:57:00Z,30.3288,-87.8293,67.2,1111122 
DISL,ioos:station:DISL:BSCA:1,2019-02-10T12:57:00Z,30.3288,-87.8293,76.7,1111122 
DISL,ioos:station:DISL:BSCA:1,2019-02-10T13:57:00Z,30.3288,-87.8293,86.5,1111122 
DISL,ioos:station:DISL:BSCA:1,2019-02-10T14:57:00Z,30.3288,-87.8293,75.86,1111122 
DISL,ioos:station:DISL:BSCA:1,2019-02-10T15:57:00Z,30.3288,-87.8293,85.4,1111122 
DISL,ioos:station:DISL:BSCA:1,2019-02-10T16:57:00Z,30.3288,-87.8293,84.5,1111122 
DISL,ioos:station:DISL:BSCA:1,2019-02-10T17:57:00Z,30.3288,-87.8293,74.54,1111122 
DISL,ioos:station:DISL:BSCA:1,2019-02-10T18:57:00Z,30.3288,-87.8293,74.78,1111122 
DISL,ioos:station:DISL:BSCA:1,2019-02-10T19:57:00Z,30.3288,-87.8293,78.09,1111122 
DISL,ioos:station:DISL:BSCA:1,2019-02-10T20:57:00Z,30.3288,-87.8293,81.3,1111122 
DISL,ioos:station:DISL:BSCA:1,2019-02-10T21:57:00Z,30.3288,-87.8293,81.6,1111122 
DISL,ioos:station:DISL:BSCA:1,2019-02-10T22:57:00Z,30.3288,-87.8293,97.2,1111122 
DISL,ioos:station:DISL:BSCA:1,2019-02-10T23:57:00Z,30.3288,-87.8293,85.5,1111122 
DISL,ioos:station:DISL:BSCA:1,2019-02-11T00:57:00Z,30.3288,-87.8293,84.9,1111122 
DISL,ioos:station:DISL:BSCA:1,2019-02-11T01:57:00Z,30.3288,-87.8293,99.4,1111122 
DISL,ioos:station:DISL:BSCA:1,2019-02-11T02:57:00Z,30.3288,-87.8293,99.4,1111122 
DISL,ioos:station:DISL:BSCA:1,2019-02-11T03:57:00Z,30.3288,-87.8293,84.7,1111122 
DISL,ioos:station:DISL:BSCA:1,2019-02-11T04:57:00Z,30.3288,-87.8293,99.4,1111122 
DISL,ioos:station:DISL:BSCA:1,2019-02-11T05:57:00Z,30.3288,-87.8293,96.0,1111122 
DISL,ioos:station:DISL:BSCA:1,2019-02-11T06:57:00Z,30.3288,-87.8293,95.5,1111122 
DISL,ioos:station:DISL:BSCA:1,2019-02-11T07:57:00Z,30.3288,-87.8293,94.3,1111122 
DISL,ioos:station:DISL:BSCA:1,2019-02-11T08:57:00Z,30.3288,-87.8293,93.8,1111122 
DISL,ioos:station:DISL:BSCA:1,2019-02-11T09:57:00Z,30.3288,-87.8293,93.8,1111122 
DISL,ioos:station:DISL:BSCA:1,2019-02-11T10:57:00Z,30.3288,-87.8293,94.7,1111122 
DISL,ioos:station:DISL:BSCA:1,2019-02-11T11:57:00Z,30.3288,-87.8293,98.9,1111122 
DISL,ioos:station:DISL:BSCA:1,2019-02-11T12:57:00Z,30.3288,-87.8293,99.4,1111122 
DISL,ioos:station:DISL:BSCA:1,2019-02-11T13:57:00Z,30.3288,-87.8293,99.3,1111122 
DISL,ioos:station:DISL:BSCA:1,2019-02-11T14:57:00Z,30.3288,-87.8293,85.7,1111122 
DISL,ioos:station:DISL:BSCA:1,2019-02-11T15:57:00Z,30.3288,-87.8293,99.3,1111122 
DISL,ioos:station:DISL:BSCA:1,2019-02-11T16:57:00Z,30.3288,-87.8293,85.1,1111122 
DISL,ioos:station:DISL:BSCA:1,2019-02-11T17:57:00Z,30.3288,-87.8293,99.3,1111122 
DISL,ioos:station:DISL:BSCA:1,2019-02-11T18:57:00Z,30.3288,-87.8293,99.3,1111122 
DISL,ioos:station:DISL:BSCA:1,2019-02-11T19:57:00Z,30.3288,-87.8293,99.5,1111122 
DISL,ioos:station:DISL:BSCA:1,2019-02-11T20:57:00Z,30.3288,-87.8293,84.6,1111122 
DISL,ioos:station:DISL:BSCA:1,2019-02-11T21:57:00Z,30.3288,-87.8293,84.6,1111122 
DISL,ioos:station:DISL:BSCA:1,2019-02-11T22:57:00Z,30.3288,-87.8293,84.6,1111122 
DISL,ioos:station:DISL:BSCA:1,2019-02-11T23:57:00Z,30.3288,-87.8293,84.6,1111122 
DISL,ioos:station:DISL:BSCA:1,2019-02-12T00:57:00Z,30.3288,-87.8293,99.4,1111122 
DISL,ioos:station:DISL:BSCA:1,2019-02-12T01:57:00Z,30.3288,-87.8293,99.5,1111122 
DISL,ioos:station:DISL:BSCA:1,2019-02-12T02:57:00Z,30.3288,-87.8293,99.4,1111122 
DISL,ioos:station:DISL:BSCA:1,2019-02-12T03:57:00Z,30.3288,-87.8293,99.5,1111122 
DISL,ioos:station:DISL:BSCA:1,2019-02-12T04:57:00Z,30.3288,-87.8293,99.3,1111122 
DISL,ioos:station:DISL:BSCA:1,2019-02-12T05:57:00Z,30.3288,-87.8293,99.5,1111122 
DISL,ioos:station:DISL:BSCA:1,2019-02-12T06:57:00Z,30.3288,-87.8293,99.5,1111122 
DISL,ioos:station:DISL:BSCA:1,2019-02-12T07:57:00Z,30.3288,-87.8293,99.5,1111122 
DISL,ioos:station:DISL:BSCA:1,2019-02-12T08:57:00Z,30.3288,-87.8293,99.5,1111122 
DISL,ioos:station:DISL:BSCA:1,2019-02-12T09:57:00Z,30.3288,-87.8293,99.5,1111122 
DISL,ioos:station:DISL:BSCA:1,2019-02-12T10:57:00Z,30.3288,-87.8293,99.5,1111122 
DISL,ioos:station:DISL:BSCA:1,2019-02-12T11:57:00Z,30.3288,-87.8293,99.5,1111122 
DISL,ioos:station:DISL:BSCA:1,2019-02-12T12:57:00Z,30.3288,-87.8293,99.5,1111122 
DISL,ioos:station:DISL:BSCA:1,2019-02-12T13:57:00Z,30.3288,-87.8293,84.3,1111122 
DISL,ioos:station:DISL:BSCA:1,2019-02-12T14:57:00Z,30.3288,-87.8293,84.5,1111122 
DISL,ioos:station:DISL:BSCA:1,2019-02-12T15:57:00Z,30.3288,-87.8293,85.7,1111122 
DISL,ioos:station:DISL:BSCA:1,2019-02-12T16:57:00Z,30.3288,-87.8293,84.4,1111122 
DISL,ioos:station:DISL:BSCA:1,2019-02-12T17:57:00Z,30.3288,-87.8293,86.0,1111122 
DISL,ioos:station:DISL:BSCA:1,2019-02-12T18:57:00Z,30.3288,-87.8293,98.4,1111122 
DISL,ioos:station:DISL:BSCA:1,2019-02-12T19:57:00Z,30.3288,-87.8293,91.1,1111122 
DISL,ioos:station:DISL:BSCA:1,2019-02-12T20:57:00Z,30.3288,-87.8293,79.51,1111122 
DISL,ioos:station:DISL:BSCA:1,2019-02-12T21:57:00Z,30.3288,-87.8293,85.0,1111122 
DISL,ioos:station:DISL:BSCA:1,2019-02-12T22:57:00Z,30.3288,-87.8293,89.3,1111122 
DISL,ioos:station:DISL:BSCA:1,2019-02-12T23:57:00Z,30.3288,-87.8293,88.9,1111122 
DISL,ioos:station:DISL:BSCA:1,2019-02-13T00:57:00Z,30.3288,-87.8293,90.6,1111122 
DISL,ioos:station:DISL:BSCA:1,2019-02-13T01:57:00Z,30.3288,-87.8293,93.9,1111122 
DISL,ioos:station:DISL:BSCA:1,2019-02-13T02:57:00Z,30.3288,-87.8293,85.7,1111122 
DISL,ioos:station:DISL:BSCA:1,2019-02-13T03:57:00Z,30.3288,-87.8293,84.7,1111122 